Capri, Italy

3:07 PM CEST on August 18, 2017 (GMT +0200)
Capri

Weather History for LIQC - August, 2014

Change the Weather History Date:

Saturday, August 9, 2014

  Actual Average (LIRN) Record (LIRN)
Temperature  
Mean Temperature 82 °F -  
Max Temperature 92 °F 86 °F 99 °F (2017)
Min Temperature 72 °F 68 °F 66 °F (2005)
Cooling Degree Days 17    
Growing Degree Days 32 (Base 50)    
Moisture  
Dew Point 74 °F    
Average Humidity 83    
Maximum Humidity 94    
Minimum Humidity 52    
Precipitation  
Precipitation 0.00 in - - ()
Sea Level Pressure  
Sea Level Pressure 30.03 in    
Wind  
Wind Speed 3 mph ()    
Max Wind Speed 7 mph    
Max Gust Speed -    
Visibility 7.5 miles    
Events      
Averages and records for this station are not official NWS values.
T = Trace of Precipitation, MM = Missing Value Source: Averaged Metar Reports

Daily Weather History Graph

Daily Weather History Graph

Search for Another Location

Airport or City:

Trip Planner

Search our weather history database for the weather conditions in past years. The results will help you decide how hot, cold, wet, or windy it might be!

Date:

Astronomy

Aug. 09, 2014 Rise Set
Actual Time 6:07 AM CEST 8:09 PM CEST
Civil Twilight 5:37 AM CEST 8:38 PM CEST
Nautical Twilight 5:01 AM CEST 9:15 PM CEST
Astronomical Twilight 4:21 AM CEST 9:54 PM CEST
Moon 6:56 PM CEST (8/9) 4:28 AM CEST (8/9)
Length of Visible Light 15h 01m
Length of Day
14h 01m
Waxing Gibbous, 97% of the Moon is Illuminated
Aug 9
Waxing Gibbous
Aug 10
Full
Aug 17
Last Quarter
Aug 25
New
Sep 2
First Quarter

Hourly Weather History & Observations

Time (CEST) Temp. Heat Index Dew Point Humidity Pressure Visibility Wind Dir Wind Speed Gust Speed Precip Events Conditions
1:55 AM 73.4 °F - 71.6 °F 94% 30.01 in - North - - N/A   Clear
2:00 AM 74 °F - 72 °F 93% 30.00 in 6 mi 2.3 mph - -  
4:55 AM 73.4 °F - 71.6 °F 94% 30.01 in - North - - N/A   Clear
5:00 AM 73 °F - 71 °F 91% 29.99 in 6 mi 2.3 mph - -  
5:55 AM 73.4 °F - 71.6 °F 94% 30.01 in - North - - N/A   Clear
7:55 AM 73.4 °F - 71.6 °F 94% 30.01 in - North - - N/A   Scattered Clouds
8:00 AM 73 °F - 71 °F 91% 30.00 in 6 mi 3.5 mph - -   Partly Cloudy
8:55 AM 75.2 °F - 71.6 °F 89% 30.01 in - North - - N/A   Clear
9:55 AM 75.2 °F - 73.4 °F 94% 30.04 in - North - - N/A   Clear
10:55 AM 77.0 °F - 75.2 °F 94% 30.04 in - North - - N/A   Clear
11:00 AM 77 °F - 75 °F 91% 30.04 in 6 mi 5.8 mph - -  
11:55 AM 78.8 °F - 75.2 °F 89% 30.06 in - North - - N/A   Clear
12:55 PM 80.6 °F 87.1 °F 77.0 °F 89% 30.04 in - North - - N/A   Clear
1:55 PM 86.0 °F 96.9 °F 77.0 °F 74% 30.06 in - North - - N/A   Clear
2:00 PM 86 °F - 76 °F 67% 30.04 in 6 mi 6.9 mph - -  
2:55 PM 87.8 °F 99.7 °F 77.0 °F 70% 30.06 in - North - - N/A   Clear
3:55 PM 87.8 °F 102.5 °F 78.8 °F 75% 30.06 in - North - - N/A   Clear
4:55 PM 91.4 °F 102.5 °F 75.2 °F 59% 30.04 in - North - - N/A   Clear
5:00 PM 91 °F - 76 °F 52% 30.01 in 12 mi 5.8 mph - -  
5:55 PM 89.6 °F 99.8 °F 75.2 °F 62% 30.04 in - North - - N/A   Clear
6:55 PM 80.6 °F 82.3 °F 64.4 °F 58% 30.01 in - North - - N/A   Clear
7:55 PM 80.6 °F 85.4 °F 73.4 °F 79% 30.01 in - North - - N/A   Clear
8:00 PM 80 °F - 73 °F 73% 30.01 in 12 mi 3.5 mph - -  
8:55 PM 77.0 °F - 73.4 °F 89% 30.01 in - North - - N/A   Clear
9:55 PM 75.2 °F - 73.4 °F 94% 30.04 in - North - - N/A   Clear
10:55 PM 75.2 °F - 73.4 °F 94% 30.04 in - North - - N/A   Clear
11:00 PM 75 °F - 74 °F 94% 30.02 in 6 mi 1.2 mph - -  
11:55 PM 75.2 °F - 73.4 °F 94% 30.04 in - North - - N/A   Clear